Location: Helsinki
(60.1699°N, 24.9384°E)
Time: 11:58:35
(UTC+02:00)

Transit 2A Rocket - Pass Details

Date: 27 September 2023
Orbit: 593 x 903 km, 66.7° (Epoch: 06 December)

Event Time Altitude Azimuth Distance (km) Brightness Sun altitude
Rises 17:27:48 0° 243° (WSW) 3,250 10.5 11.0°
Reaches altitude 10° 17:30:19 10° 246° (WSW) 2,273 12.0 10.8°
Maximum altitude 17:35:27 66° 329° (NNW) 767 5.3 10.2°
Drops below altitude 10° 17:40:10 10° 52° (NE) 2,086 6.7 9.6°
Sets 17:42:23 0° 56° (NE) 2,960 7.4 9.4°
